Vorticity
4 7 6 5 6 6 5 4 6 5 7 10 22 14 2 16 -0 15 34 25 54 15 14 31 14 17 6 -4 14 5 -1 11 11 4 65 18 6 8 3 8 7 3 5 4 4 3 2
5 6 5 5 5 6 6 6 5 5 7 9 17 19 1 21 0 12 18 13 34 27 14 36 15 18 9 17 0 48 36 25 13 6 10 39 14 10 5 10 5 6 5 4 4 5 2
4 5 6 6 5 5 6 6 6 5 6 10 12 22 3 4 17 12 16 24 1 -1 37 22 12 14 16 12 4 -1 50 21 -11 -13 43 28 11 5 9 8 6 6 6 4 6 7 4
3 4 5 8 6 5 6 7 7 5 5 9 10 23 9 2 8 19 9 6 13 15 -1 11 -2 20 18 30 23 30 28 38 -30 -2 27 18 9 4 5 7 6 5 3 6 5 3 6
4 4 4 7 8 5 6 6 7 8 4 7 11 14 25 2 2 9 14 8 10 11 25 -2 -6 0 4 43 10 18 16 9 8 31 -2 21 6 8 6 5 5 7 6 6 7 4 2
3 4 5 4 7 8 6 6 6 8 8 5 9 10 24 8 7 -4 2 18 8 12 20 3 4 -3 13 23 25 9 14 17 6 -1 23 14 15 8 7 7 8 7 9 6 5 7 9
2 4 7 4 4 8 6 6 6 7 9 7 5 10 14 33 4 4 10 6 16 12 19 13 6 18 20 25 18 33 31 21 28 19 16 13 11 6 4 9 6 6 7 7 9 8 4
3 3 6 7 3 6 10 5 6 5 7 9 6 7 11 13 15 14 5 4 16 18 9 17 12 15 12 20 11 22 24 25 13 10 14 15 8 12 5 7 8 7 4 8 7 7 6
4 3 6 6 5 4 9 8 5 6 5 7 9 5 8 13 15 8 20 6 5 21 16 7 15 18 13 5 8 -0 22 11 11 16 13 12 8 13 8 9 6 7 6 2 6 7 6
6 5 7 6 5 4 6 9 8 5 5 5 8 7 6 8 17 16 12 17 4 4 21 11 13 7 22 11 6 3 10 10 13 14 15 13 11 14 9 8 9 6 6 9 5 2 1
9 5 7 6 7 5 5 9 8 9 4 5 6 9 7 7 8 14 16 18 3 3 19 17 11 12 23 11 21 8 6 10 14 11 10 13 10 12 8 10 11 11 9 9 12 16 16
3 9 6 6 8 5 6 6 7 6 9 4 4 5 9 4 7 8 9 21 10 5 10 16 18 15 7 19 8 29 9 6 12 13 11 10 8 9 11 13 13 11 9 8 7 7 4
-2 10 7 5 7 7 5 4 6 7 6 10 4 4 7 8 6 8 7 10 15 14 8 6 12 21 22 8 12 8 26 9 6 2 11 9 5 5 2 3 2 2 1 -1 -1 1 4
2 7 8 7 7 8 6 3 3 6 6 7 11 4 4 6 8 7 6 4 11 16 14 11 6 11 20 21 12 8 13 6 5 8 7 2 4 5 4 2 2 2 2 3 3 5 7
3 3 4 10 5 6 6 4 3 3 5 5 6 10 3 4 7 8 8 4 6 10 14 13 12 8 10 17 20 20 11 11 15 10 6 4 6 5 5 3 2 9 9 9 6 10 10
7 2 3 5 9 5 6 5 4 3 3 5 4 6 8 8 2 5 9 6 9 7 6 12 13 12 11 8 12 15 17 17 12 16 12 15 10 9 11 8 11 9 11 8 9 10 4
6 5 10 4 6 7 5 5 5 4 4 4 5 4 5 8 8 4 2 8 6 9 8 7 4 6 19 11 10 9 13 13 16 15 12 9 7 12 9 7 8 5 2 5 4 2 1
4 10 7 9 4 5 7 6 4 6 6 5 2 5 4 6 6 6 9 2 3 6 7 9 7 6 4 4 19 16 9 10 16 15 14 16 15 8 9 6 7 4 5 4 4 5 4
8 12 6 10 9 4 4 5 6 6 7 7 6 3 5 4 4 5 7 11 6 2 4 7 8 10 7 6 4 2 8 18 14 7 11 19 20 21 18 16 13 14 14 13 11 11 11
12 11 4 16 4 7 4 5 5 6 6 6 5 5 5 6 4 6 9 8 7 8 3 2 5 6 7 8 6 5 4 5 3 3 6 9 12 13 12 13 14 16 13 13 14 12 13
10 7 6 4 17 6 3 7 6 6 4 3 6 6 5 6 4 12 10 13 11 9 8 7 2 2 5 7 8 8 8 7 4 6 7 6 4 3 4 4 4 5 6 7 6 6 4
6 4 8 9 6 12 11 10 9 5 9 6 4 5 8 5 6 3 13 7 10 12 9 8 7 5 5 3 6 6 5 6 7 8 6 8 7 5 5 8 8 6 5 4 4 4 3
3 8 7 3 10 6 7 11 9 9 9 5 4 4 8 9 9 6 4 9 10 12 14 11 9 9 7 6 7 4 5 6 6 4 5 7 6 7 9 7 7 6 8 9 9 8 6
5 4 6 5 2 1 4 3 7 4 5 6 8 5 5 8 5 9 9 5 6 6 7 12 10 8 8 8 9 8 11 9 5 7 6 4 4 4 5 6 7 7 7 7 6 6 7
2 4 3 1 2 2 3 1 3 7 3 4 3 4 2 2 -1 2 9 10 5 8 5 4 6 9 6 5 2 4 6 8 9 10 10 9 7 6 4 2 2 3 5 5 6 6 5
3 1 5 4 1 5 -2 0 4 3 11 4 3 5 4 8 2 3 -1 10 11 5 5 4 5 6 6 5 5 4 4 3 6 6 7 8 8 10 9 7 9 4 6 7 4 4 7
7 6 7 1 6 1 4 -2 2 3 5 6 8 4 3 5 2 3 3 -1 6 7 6 5 4 4 6 3 7 13 21 15 12 13 11 8 10 9 8 6 3 4 4 8 12 8 6
4 5 6 7 10 7 5 8 1 2 1 -1 -1 1 2 8 -0 3 3 2 3 2 3 6 6 6 5 5 2 2 3 -2 2 2 8 10 11 18 18 18 18 16 16 15 14 15 11
4 5 3 7 5 13 8 9 9 8 7 5 0 3 2 7 7 6 2 1 0 -1 1 3 1 7 7 11 8 4 5 3 4 3 6 5 -1 2 8 14 12 12 10 10 10 8 9
Height
5801 5797 5791 5785 5779 5771 5763 5754 5744 5733 5720 5707 5693 5682 5673 5661 5650 5637 5624 5612 5602 5597 5595 5595 5600 5607 5612 5619 5624 5630 5635 5640 5655 5665 5672 5687 5702 5717 5732 5743 5757 5770 5781 5789 5799 5810 5817
5802 5797 5792 5786 5779 5771 5763 5755 5745 5735 5723 5710 5697 5685 5676 5666 5655 5642 5633 5623 5614 5607 5604 5604 5609 5616 5623 5626 5630 5632 5635 5644 5652 5664 5673 5690 5704 5717 5727 5740 5754 5766 5776 5786 5797 5806 5814
5803 5798 5793 5786 5780 5773 5765 5756 5748 5737 5726 5714 5702 5689 5681 5671 5660 5651 5642 5634 5629 5623 5620 5618 5619 5623 5628 5630 5630 5635 5637 5648 5654 5662 5670 5678 5693 5709 5726 5740 5753 5764 5773 5784 5793 5802 5809
5803 5799 5794 5788 5781 5774 5767 5758 5750 5741 5730 5718 5707 5695 5685 5678 5667 5659 5651 5645 5639 5634 5633 5632 5632 5632 5633 5632 5634 5639 5644 5652 5661 5666 5674 5684 5703 5718 5731 5742 5750 5760 5769 5780 5790 5799 5805
5804 5800 5795 5789 5783 5776 5769 5762 5753 5744 5735 5725 5713 5702 5691 5685 5677 5667 5661 5654 5649 5643 5642 5639 5639 5637 5638 5635 5640 5644 5649 5658 5665 5671 5679 5692 5708 5721 5731 5741 5751 5759 5768 5777 5787 5795 5802
5805 5801 5796 5791 5785 5778 5771 5764 5756 5748 5739 5729 5720 5709 5698 5689 5683 5676 5670 5663 5658 5654 5649 5649 5646 5647 5643 5643 5644 5648 5656 5662 5669 5677 5685 5697 5708 5720 5730 5740 5750 5760 5769 5776 5785 5794 5800
5806 5802 5798 5792 5786 5780 5774 5767 5760 5752 5744 5735 5725 5716 5707 5697 5689 5683 5677 5671 5667 5661 5662 5659 5656 5656 5654 5653 5653 5657 5660 5665 5672 5681 5691 5701 5711 5722 5735 5743 5752 5761 5771 5779 5786 5792 5798
5807 5803 5798 5794 5788 5782 5777 5769 5763 5756 5748 5740 5731 5722 5714 5706 5698 5691 5685 5681 5676 5672 5668 5665 5665 5664 5663 5663 5664 5667 5671 5676 5680 5686 5697 5710 5718 5725 5731 5743 5754 5761 5770 5776 5783 5790 5796
5807 5803 5799 5794 5790 5784 5778 5772 5766 5760 5753 5745 5738 5729 5722 5714 5707 5700 5693 5688 5683 5678 5674 5671 5671 5672 5673 5672 5675 5677 5683 5686 5691 5698 5704 5711 5719 5728 5739 5749 5758 5765 5771 5777 5783 5788 5794
5807 5803 5799 5794 5791 5786 5781 5775 5769 5763 5757 5750 5744 5735 5728 5721 5715 5707 5701 5696 5691 5685 5681 5680 5679 5679 5681 5681 5685 5687 5690 5697 5702 5706 5711 5719 5727 5735 5743 5752 5760 5766 5772 5777 5783 5788 5793
5808 5804 5799 5795 5791 5787 5782 5777 5771 5766 5761 5755 5749 5742 5735 5727 5721 5716 5710 5704 5700 5694 5692 5689 5687 5687 5688 5691 5694 5696 5697 5702 5708 5713 5719 5726 5730 5737 5744 5752 5759 5766 5771 5776 5781 5785 5790
5807 5804 5799 5795 5792 5788 5783 5779 5774 5769 5764 5759 5753 5747 5741 5735 5729 5723 5717 5712 5708 5705 5699 5698 5696 5695 5696 5697 5700 5703 5706 5709 5712 5719 5723 5727 5733 5737 5744 5752 5759 5764 5770 5775 5779 5783 5788
5806 5803 5799 5795 5792 5788 5785 5780 5777 5772 5767 5762 5757 5751 5746 5741 5736 5729 5725 5721 5717 5711 5709 5707 5704 5702 5702 5704 5705 5708 5711 5714 5718 5722 5727 5732 5737 5739 5746 5753 5759 5764 5768 5773 5777 5780 5783
5804 5802 5798 5795 5792 5789 5785 5782 5778 5774 5770 5765 5760 5755 5751 5746 5742 5736 5731 5728 5724 5717 5714 5714 5713 5711 5710 5710 5711 5713 5716 5719 5722 5726 5730 5734 5739 5741 5745 5751 5756 5761 5765 5769 5771 5775 5777
5802 5800 5797 5794 5791 5789 5786 5783 5779 5775 5771 5767 5763 5759 5756 5752 5747 5742 5738 5734 5729 5725 5722 5720 5719 5718 5716 5716 5717 5718 5720 5722 5726 5729 5733 5736 5739 5742 5746 5749 5755 5758 5761 5764 5767 5769 5772
5799 5797 5794 5792 5789 5787 5785 5782 5779 5776 5772 5769 5765 5761 5760 5756 5751 5747 5743 5741 5736 5731 5728 5726 5726 5724 5724 5722 5723 5723 5725 5726 5728 5731 5734 5738 5741 5742 5745 5749 5752 5754 5758 5761 5763 5765 5767
5795 5794 5791 5789 5787 5785 5783 5781 5779 5776 5773 5770 5767 5764 5761 5758 5755 5751 5749 5746 5741 5738 5735 5733 5731 5730 5729 5729 5729 5728 5729 5731 5732 5734 5736 5738 5741 5744 5744 5747 5750 5753 5755 5757 5759 5760 5761
5790 5789 5788 5786 5784 5782 5780 5779 5777 5775 5773 5770 5767 5765 5762 5759 5757 5754 5752 5749 5746 5743 5741 5739 5737 5735 5734 5734 5734 5733 5733 5733 5734 5736 5738 5740 5742 5744 5746 5748 5749 5751 5753 5754 5755 5757 5756
5783 5783 5783 5782 5781 5778 5777 5775 5774 5772 5771 5770 5767 5765 5762 5760 5757 5755 5753 5751 5749 5746 5744 5743 5741 5740 5738 5737 5738 5737 5737 5737 5737 5738 5739 5740 5741 5743 5746 5748 5748 5749 5750 5750 5751 5752 5752
5776 5776 5777 5777 5776 5775 5774 5772 5771 5770 5768 5767 5766 5763 5761 5759 5757 5754 5752 5751 5749 5748 5746 5745 5744 5743 5741 5740 5740 5739 5738 5739 5740 5740 5740 5741 5741 5742 5743 5743 5744 5744 5745 5745 5745 5747 5746
5769 5769 5770 5770 5770 5771 5769 5768 5767 5766 5765 5764 5763 5761 5759 5756 5755 5753 5751 5750 5748 5747 5746 5745 5744 5743 5743 5742 5742 5741 5740 5740 5740 5740 5740 5741 5741 5742 5741 5741 5741 5742 5742 5742 5743 5743 5743
5762 5762 5762 5763 5763 5764 5764 5763 5762 5762 5761 5759 5758 5757 5755 5753 5751 5750 5749 5747 5746 5746 5744 5743 5743 5742 5742 5741 5741 5741 5740 5740 5740 5740 5739 5739 5739 5739 5739 5739 5739 5740 5740 5738 5739 5739 5738
5755 5756 5756 5756 5756 5757 5756 5757 5757 5757 5756 5755 5753 5751 5751 5750 5748 5746 5745 5745 5743 5742 5742 5741 5740 5739 5739 5739 5739 5739 5738 5737 5737 5737 5737 5736 5736 5736 5737 5734 5734 5737 5735 5733 5733 5731 5730
5745 5746 5748 5749 5750 5750 5751 5751 5750 5750 5750 5750 5750 5748 5747 5745 5744 5742 5740 5739 5739 5738 5738 5737 5737 5737 5737 5735 5734 5734 5734 5733 5732 5731 5731 5730 5729 5728 5728 5728 5728 5728 5727 5726 5724 5723 5722
5735 5736 5738 5738 5740 5741 5743 5744 5745 5744 5744 5742 5742 5742 5742 5741 5738 5738 5737 5735 5734 5733 5733 5731 5732 5732 5731 5730 5730 5728 5728 5728 5726 5725 5724 5723 5723 5720 5720 5720 5719 5719 5718 5716 5714 5714 5712
5723 5726 5728 5729 5730 5730 5731 5732 5734 5736 5737 5737 5736 5735 5735 5735 5734 5732 5730 5729 5729 5727 5725 5725 5724 5724 5724 5723 5723 5721 5720 5720 5720 5719 5716 5713 5710 5710 5709 5708 5708 5709 5706 5704 5701 5702 5701
5709 5712 5716 5718 5718 5719 5719 5722 5722 5723 5725 5727 5728 5730 5728 5726 5727 5727 5727 5723 5720 5721 5720 5717 5715 5715 5714 5715 5714 5714 5713 5710 5710 5709 5708 5706 5702 5700 5696 5694 5696 5695 5692 5691 5690 5693 5687
5693 5697 5701 5703 5706 5707 5709 5710 5711 5711 5712 5713 5715 5715 5718 5720 5717 5716 5718 5718 5716 5714 5712 5712 5710 5706 5704 5703 5703 5702 5703 5703 5702 5700 5697 5696 5694 5692 5688 5685 5684 5682 5679 5679 5676 5672 5670
5677 5680 5683 5687 5691 5692 5695 5695 5699 5701 5699 5701 5703 5701 5702 5704 5706 5706 5705 5705 5705 5705 5704 5702 5700 5698 5697 5695 5694 5691 5690 5689 5689 5689 5687 5685 5684 5679 5679 5677 5672 5667 5665 5663 5661 5659 5657